Location: McCall
(45.0000°N, 116.0000°W)
Time: 12:35:55
(UTC-06:00)

Saudisat 1A - Visible Passes

Search period start: 24 July 2016 00:00
Search period end: 03 August 2016 00:00
Orbit: 563 x 630 km, 64.6° (Epoch: 24 July)

Date Brightness Start Highest point End Pass type
(mag) Time Alt. Az. Time Alt. Az. Time Alt. Az.
24 Jul 9.0 01:40:41 38° E 01:40:41 38° E 01:43:56 10° NE visible
24 Jul 9.7 03:17:19 21° W 03:19:13 28° NW 03:23:09 10° NNE visible
25 Jul 8.3 01:50:18 65° NE 01:50:18 65° NE 01:54:17 10° NE visible
25 Jul 10.3 03:26:57 12° WNW 03:29:44 19° NW 03:33:02 10° N visible
26 Jul 10.4 00:23:14 13° ENE 00:23:14 13° ENE 00:23:59 10° ENE visible
26 Jul 8.4 01:59:53 61° NW 01:59:56 61° NW 02:04:29 10° NNE visible
26 Jul 10.7 03:37:56 10° WNW 03:40:20 14° NNW 03:42:44 10° N visible
27 Jul 9.7 00:32:45 23° ENE 00:32:45 23° ENE 00:34:55 10° NE visible
27 Jul 9.2 02:09:22 34° WNW 02:10:17 38° NW 02:14:34 10° NNE visible
27 Jul 11.0 03:50:14 10° NW 03:51:02 10° NNW 03:51:50 10° NNW visible
28 Jul 8.8 00:42:10 41° ENE 00:42:10 41° ENE 00:45:27 10° NE visible
28 Jul 10.0 02:18:48 19° WNW 02:20:43 25° NW 02:24:32 10° NNE visible
29 Jul 8.1 00:51:29 77° NNE 00:51:29 77° NNE 00:55:45 10° NE visible
29 Jul 10.6 02:28:09 10° WNW 02:31:16 18° NW 02:34:23 10° N visible
29 Jul 9.9 23:24:04 17° E 23:24:04 17° E 23:25:40 10° ENE visible
30 Jul 8.7 01:00:41 48° W 01:01:25 54° NW 01:05:54 10° NNE visible
30 Jul 10.9 02:39:46 10° WNW 02:41:54 13° NNW 02:44:01 10° N visible
30 Jul 8.9 23:33:05 32° E 23:33:05 32° E 23:36:28 10° NE visible
31 Jul 9.6 01:09:41 23° W 01:11:47 34° NW 01:15:58 10° NNE visible
31 Jul 8.0 23:41:48 54° SSE 23:42:25 61° ESE 23:46:55 10° NE visible
01 Aug 10.3 01:18:36 10° W 01:22:14 23° NW 01:25:54 10° NNE visible
01 Aug 9.8 22:13:29 13° ESE 22:13:47 13° ESE 22:15:57 10° E visible
01 Aug 8.1 23:50:01 25° SW 23:52:36 79° NW 23:57:11 10° NE visible
02 Aug 10.9 01:29:54 10° WNW 01:32:48 16° NNW 01:35:43 10° N visible
02 Aug 9.2 22:20:30 12° SSE 22:23:43 23° ESE 22:27:18 10° ENE visible
